Location: Choisy
(48.7685°N, 2.4187°E)
Time: 20:56:33
(UTC+00:00)

BREEZE-M R/B - Pass Details

Date: 24 October 2021
Orbit: 596 x 26570 km, 48.9° (Epoch: 05 December)

Event Time Altitude Azimuth Distance (km) Brightness Sun altitude
Rises 17:54:21 0° 279° (W) 3,365 8.1 -12.3°
Reaches altitude 10° 17:56:50 10° 279° (W) 2,067 6.6 -12.7°
Maximum altitude 18:00:29 81° 192° (SSW) 622 2.5 -13.3°
Enters shadow 18:03:29 19° 106° (ESE) 1,769 4.3 -13.8°
